Zurück zum Katalog

COSMOS 1823 DEB

AktivLEO
NORAD 29359·DEBRIS·🇷🇺 Russia

Gestartet Feb 20, 1987 von Plesetsk Cosmodrome

Loading…

Nächste Überflüge (nächste 24 Stunden)

TLE

AktuellSource: Space-Track

Epoche: Sep 14, 2026, 22:04 UTC

1 29359U 87020EA  26257.91946422 -.00000001  00000-0  11682-3 0  9997
2 29359  73.6156 304.5086 0028681 106.3511  75.7060 12.41131132540009

Verfolge COSMOS 1823 DEB in Echtzeit mit AllMySat

Download on the App Store